Location: Unspecified
(0.0000°N, 0.0000°E)
Time: 16:23:06
(UTC+00:00)

Vanguard 2 Rocket - Pass Details

Date: 28 November 2019
Orbit: 554 x 3326 km, 32.9° (Epoch: 13 December)

Event Time Altitude Azimuth Distance (km) Brightness Sun altitude
Rises 16:20:30 0° 228° (SW) 7,208 12.8 20.3°
Reaches altitude 10° 16:25:57 10° 223° (SW) 5,985 12.5 19.0°
Maximum altitude 16:42:53 54° 150° (SSE) 2,588 9.4 15.1°
Drops below altitude 10° 16:52:54 10° 75° (ENE) 3,712 9.5 12.8°
Sets 16:55:26 0° 71° (ENE) 4,395 9.7 12.2°
